Temperature
6 6 5 5 6 6 6 6 6 7 8 10 10 9 10 10 9 7 7 7 9 10 10 10 10 10 10 10 10 9 9 9 8 7 7 6 5 4 4 3 2 2 1 1
5 6 5 6 6 6 6 7 7 7 8 9 9 10 10 10 8 7 7 7 9 10 10 10 10 10 9 9 9 9 8 8 7 6 6 5 4 3 3 2 1 1 0 0
6 7 6 5 6 7 7 7 8 7 8 9 9 9 8 8 8 8 7 8 9 10 10 10 10 9 9 9 8 8 7 7 6 5 4 4 3 2 2 1 0 -0 -0 -0
6 6 8 9 8 8 8 8 9 9 9 9 9 9 8 6 8 8 8 8 9 11 10 9 9 9 8 8 8 7 6 5 4 4 3 2 2 1 1 -0 -0 -1 -1 -1
6 8 9 9 8 7 7 7 9 9 10 9 9 8 8 7 8 8 9 9 10 11 10 9 9 8 8 7 6 6 5 4 3 3 2 1 1 0 -0 -1 -1 -1 -1 -2
7 8 9 9 8 8 8 7 9 9 9 9 8 8 7 7 8 8 9 10 10 10 9 9 8 8 7 6 5 4 3 3 2 1 1 0 -0 -1 -1 -1 -2 -2 -2 -3
8 8 8 9 8 8 9 10 8 9 9 8 7 6 6 8 7 8 9 9 9 9 9 8 8 7 6 5 4 3 2 2 1 0 0 -0 -1 -1 -2 -2 -2 -3 -3 -3
7 8 8 9 7 7 9 8 8 8 9 9 8 6 6 6 6 8 9 8 8 8 7 7 6 6 5 4 3 2 1 1 0 -0 -1 -1 -2 -2 -2 -3 -3 -3 -4 -3
8 9 8 9 9 9 9 8 8 8 8 9 8 6 6 5 5 6 7 7 7 7 6 5 4 4 4 2 1 1 0 -0 -1 -1 -2 -2 -2 -2 -3 -4 -4 -4 -5 -5
8 9 8 9 9 9 9 8 8 8 9 10 8 6 5 5 6 6 6 6 6 6 5 3 2 2 2 1 0 -0 -1 -1 -2 -2 -2 -2 -3 -3 -4 -4 -4 -5 -7 -7
9 9 8 9 9 9 9 8 8 7 8 8 7 5 5 6 6 6 6 5 5 5 4 2 1 1 0 -0 -1 -1 -1 -2 -2 -2 -3 -3 -4 -4 -4 -5 -6 -7 -8 -9
9 9 9 8 9 9 9 8 8 8 6 6 7 7 6 5 5 5 5 4 3 3 2 1 0 -0 -1 -1 -1 -2 -2 -2 -2 -3 -3 -4 -4 -4 -5 -6 -7 -7 -8 -9
10 10 9 8 9 8 9 8 8 8 8 7 7 7 7 6 4 4 3 3 2 2 1 1 -0 -1 -1 -2 -2 -2 -2 -3 -3 -4 -4 -4 -5 -6 -6 -6 -6 -7 -8 -9
9 10 8 8 8 8 9 8 8 8 7 7 7 6 6 5 3 3 2 2 1 1 0 -0 -1 -1 -2 -2 -2 -2 -3 -3 -4 -4 -5 -6 -6 -7 -7 -8 -8 -8 -8 -9
8 9 9 9 8 8 8 8 8 7 7 6 6 5 5 4 3 2 1 1 0 -0 -1 -1 -2 -2 -2 -2 -3 -3 -4 -4 -5 -5 -6 -6 -7 -8 -8 -8 -9 -9 -9 -9
7 8 7 8 7 6 7 7 8 7 6 5 4 4 3 3 2 2 1 0 0 -0 -1 -2 -2 -2 -3 -3 -4 -4 -5 -5 -6 -6 -7 -7 -8 -8 -8 -9 -10 -10 -10 -10
7 4 5 5 6 6 7 7 8 7 6 5 4 4 3 3 2 1 -0 -1 -1 -1 -2 -2 -2 -3 -3 -4 -4 -5 -5 -6 -6 -7 -7 -7 -8 -9 -9 -10 -10 -10 -10 -10
10 10 9 8 7 6 6 7 7 6 5 5 4 4 3 3 2 1 -0 -1 -1 -2 -3 -3 -3 -4 -4 -4 -5 -5 -6 -6 -6 -7 -7 -8 -9 -9 -10 -10 -10 -10 -11 -11
9 9 8 8 7 7 7 7 6 6 5 4 4 3 2 1 1 0 -1 -1 -2 -2 -3 -4 -4 -4 -5 -5 -6 -6 -6 -6 -7 -7 -8 -9 -9 -10 -10 -10 -11 -11 -11 -11
8 7 7 7 7 7 7 6 5 5 4 3 3 2 1 0 -0 -1 -2 -2 -3 -3 -4 -4 -4 -5 -6 -6 -6 -6 -6 -7 -7 -8 -9 -9 -10 -10 -10 -11 -11 -11 -11 -11
7 7 6 6 6 6 6 5 5 4 3 2 2 2 1 -0 -1 -2 -2 -3 -3 -4 -4 -5 -5 -6 -6 -6 -6 -6 -7 -7 -8 -9 -9 -10 -10 -10 -11 -11 -11 -11 -11 -11
6 6 5 5 5 5 4 4 4 3 2 1 1 0 -0 -1 -2 -3 -3 -4 -4 -4 -5 -5 -6 -6 -6 -6 -6 -7 -7 -8 -9 -9 -10 -10 -11 -11 -11 -11 -11 -11 -11 -11
5 4 4 5 5 4 3 3 3 3 2 1 0 -0 -1 -1 -2 -3 -3 -4 -5 -5 -5 -6 -6 -6 -6 -7 -7 -7 -8 -9 -9 -10 -10 -11 -11 -11 -11 -11 -11 -11 -11 -11
4 4 4 4 4 4 3 2 1 1 1 -0 -1 -1 -1 -2 -3 -4 -4 -4 -5 -5 -5 -6 -6 -6 -6 -7 -7 -8 -9 -10 -10 -10 -11 -11 -11 -11 -11 -11 -11 -11 -11 -11
3 3 3 3 3 3 2 1 0 -0 -1 -1 -2 -3 -3 -4 -3 -4 -4 -5 -5 -5 -6 -6 -6 -7 -7 -8 -8 -9 -10 -10 -10 -11 -11 -11 -11 -11 -11 -11 -11 -12 -11 -11
3 3 3 3 3 3 2 1 0 -1 -1 -2 -3 -3 -4 -4 -4 -4 -5 -5 -6 -6 -6 -7 -7 -7 -8 -9 -9 -10 -10 -11 -11 -11 -11 -11 -11 -11 -11 -11 -12 -12 -11 -11
1 2 2 2 2 2 1 0 0 -1 -2 -2 -2 -4 -4 -4 -5 -5 -5 -6 -6 -6 -7 -7 -8 -8 -9 -9 -10 -10 -10 -11 -11 -11 -11 -11 -11 -11 -11 -12 -12 -12 -11 -11
Wind_Speed
20 18 10 8 13 19 23 22 16 16 21 22 15 18 16 9 5 10 12 13 14 13 13 13 13 12 11 12 11 13 13 12 11 10 9 9 8 8 7 7 6 5 5 5
13 18 21 18 18 19 23 25 25 18 20 17 14 14 16 11 7 11 12 12 13 14 15 15 14 13 12 12 11 12 13 11 10 10 9 8 8 7 7 6 5 5 5 7
5 7 10 15 22 22 15 21 21 21 21 15 15 9 16 17 5 9 12 13 15 16 15 14 13 14 13 12 12 12 12 11 9 9 9 8 8 7 6 5 4 5 6 6
5 5 4 4 4 21 22 17 23 24 19 14 10 9 8 7 5 7 11 13 14 14 13 12 11 12 13 12 12 12 11 10 9 9 9 8 7 7 5 3 4 4 5 6
4 4 5 4 2 5 12 15 20 23 23 16 5 9 6 3 1 6 10 11 12 12 13 14 14 14 15 13 12 12 10 9 8 9 9 8 7 5 3 3 3 4 4 6
5 4 4 4 0 6 5 4 16 21 20 12 2 6 5 6 6 8 12 13 14 13 15 16 14 15 16 13 12 11 9 9 9 9 9 7 6 3 3 2 3 5 6 6
5 4 4 2 3 7 1 5 4 13 15 9 7 3 3 7 6 9 13 14 16 15 14 14 14 16 15 13 10 9 10 10 10 9 8 7 5 3 3 3 5 6 6 7
3 3 3 3 6 3 5 5 4 2 5 8 9 7 7 7 7 11 14 15 15 16 14 11 13 16 14 12 9 10 11 10 9 8 6 5 5 4 4 5 5 6 6 7
6 5 3 3 4 5 4 4 1 4 7 12 11 7 8 8 10 12 14 14 14 17 16 11 10 14 15 9 10 11 10 9 8 7 6 5 5 5 4 4 4 5 6 7
3 3 4 4 2 3 3 1 3 9 12 13 13 11 11 11 12 12 13 14 15 16 15 11 10 12 12 10 10 10 10 8 6 6 5 5 4 3 3 4 5 6 7 7
4 6 5 4 2 3 5 9 13 14 12 15 18 15 12 12 12 12 13 12 12 14 14 12 12 11 9 9 10 10 8 7 5 4 4 3 3 3 4 4 5 6 6 6
5 4 4 2 6 7 7 8 13 17 15 12 13 14 14 12 11 12 12 12 13 13 13 11 11 10 8 7 9 9 7 5 4 3 2 2 4 5 7 9 12 13 14 12
2 1 3 5 6 5 7 8 10 13 14 14 11 14 15 12 11 13 12 13 13 12 12 11 10 9 7 7 8 8 6 5 4 3 3 3 3 4 7 9 11 13 15 16
4 4 4 4 6 8 10 12 14 14 13 13 13 12 14 13 12 12 11 10 12 12 11 10 10 8 6 7 8 7 6 6 3 2 1 2 3 4 4 6 8 9 13 16
2 0 5 10 11 10 12 15 16 13 13 12 11 12 13 13 12 10 10 11 12 11 10 9 9 7 6 7 7 6 5 3 2 1 2 3 3 4 4 5 6 7 9 11
7 7 9 12 13 12 12 15 16 14 13 12 12 12 12 13 12 11 9 10 11 9 8 8 8 6 6 7 6 5 3 3 2 1 3 3 4 4 4 5 6 7 8 8
12 8 9 11 13 12 11 12 15 15 14 13 13 13 14 14 13 10 8 8 9 8 7 7 7 6 6 6 5 3 2 2 3 2 3 3 4 4 5 5 6 7 8 11
5 9 13 16 17 15 12 12 14 15 13 14 13 13 13 12 12 10 9 9 10 8 6 6 7 6 6 5 4 3 1 2 2 3 3 4 4 4 5 6 7 8 8 11
6 10 13 15 15 15 14 14 14 14 14 14 14 12 11 11 10 9 9 9 9 8 5 5 8 7 5 4 4 2 1 2 3 3 4 6 6 5 5 6 7 8 8 9
9 11 14 14 13 14 15 15 16 14 12 13 14 13 12 10 9 9 9 7 5 5 6 7 7 5 4 3 4 2 2 2 3 4 5 5 5 6 6 8 9 9 9 9
10 12 14 15 14 13 14 15 16 14 12 12 13 13 12 10 9 8 8 6 4 6 7 8 6 4 3 3 3 2 2 3 3 4 5 6 6 7 7 7 9 9 10 10
10 12 14 16 17 15 12 12 14 14 13 12 13 13 12 10 9 7 6 5 5 7 6 4 3 4 4 4 2 2 3 3 4 4 5 5 6 7 7 8 9 9 9 9
11 12 14 15 17 17 14 12 13 13 13 13 12 12 11 9 7 6 6 5 5 8 5 3 3 5 5 3 2 3 3 4 4 5 5 6 6 6 7 8 9 9 9 9
13 14 15 15 17 18 15 11 11 11 12 11 10 11 11 8 5 5 6 9 9 9 5 4 4 4 4 2 3 3 4 4 5 5 5 6 6 6 6 7 8 8 9 10
14 16 17 17 15 13 14 14 13 12 12 11 9 8 6 5 6 6 6 7 9 8 5 4 5 5 3 3 4 4 4 5 6 6 5 6 6 6 6 7 8 9 9 9
14 13 12 12 12 13 12 12 11 10 11 10 7 6 6 7 8 7 6 7 6 6 3 3 4 4 4 4 4 4 5 6 7 6 6 5 6 6 7 7 8 9 9 9
12 13 13 12 10 10 11 12 12 11 10 11 9 7 7 7 7 7 6 5 4 3 3 3 4 5 5 5 5 5 5 5 6 7 6 5 6 6 7 7 8 9 9 10
Wind_Direction
240 235 214 212 219 215 214 222 229 250 262 271 299 313 323 314 167 157 148 148 146 140 132 128 123 121 124 123 120 120 119 117 116 116 117 115 112 107 99 86 76 65 48 25
256 236 227 231 228 222 224 226 233 253 271 275 283 288 310 307 194 172 158 154 144 140 140 139 137 134 130 126 121 119 118 118 119 119 117 114 111 105 93 79 66 51 26 12
288 297 236 238 231 222 227 229 231 237 251 265 277 311 323 327 260 178 165 161 154 151 146 140 139 139 135 130 121 115 115 118 121 121 115 110 106 96 82 68 50 35 16 0
286 280 254 274 241 214 213 225 222 237 256 263 285 313 278 275 260 180 162 158 151 139 130 129 127 125 122 120 116 115 116 119 122 115 108 103 94 85 74 53 33 15 349 338
277 280 281 308 336 139 190 237 222 228 242 257 309 323 295 323 347 156 146 141 133 130 133 131 128 126 119 112 112 115 119 118 115 110 105 98 90 81 68 45 17 340 329 338
294 315 339 325 292 102 112 273 219 217 233 240 89 310 315 18 36 92 110 116 117 119 122 120 121 121 117 118 119 119 117 110 102 100 102 99 95 78 49 24 347 341 336 330
262 289 289 322 126 122 116 308 300 207 212 189 171 218 15 48 49 84 97 106 114 115 116 120 122 119 117 118 116 114 107 100 96 97 98 97 87 67 36 10 359 349 325 311
221 265 284 121 136 191 259 296 331 92 145 130 117 99 88 81 86 94 100 107 112 110 107 109 116 117 114 111 111 107 103 99 96 92 88 86 75 47 28 16 353 332 320 312
214 233 244 212 233 280 290 283 302 109 122 122 116 113 105 106 104 102 104 106 110 111 106 93 96 113 114 117 114 108 102 101 101 92 77 68 54 33 16 359 340 322 318 310
280 273 265 275 286 331 338 356 86 113 124 123 119 120 124 119 108 101 99 104 108 106 103 94 89 97 113 120 114 110 108 107 101 89 73 48 33 21 358 341 329 316 306 298
258 268 281 246 150 109 81 90 95 89 101 117 126 127 122 109 104 103 101 96 100 105 106 103 103 102 107 115 115 111 109 104 97 88 74 42 12 345 331 305 296 305 293 289
234 224 189 188 139 135 127 121 122 117 112 115 127 123 117 108 105 106 103 103 103 104 109 109 107 105 107 114 117 116 113 110 106 92 63 31 3 343 338 327 325 327 326 318
236 128 108 117 114 125 127 124 119 118 124 120 113 119 117 111 109 110 108 111 114 116 117 115 110 106 109 112 110 110 115 111 90 73 44 14 352 334 324 327 329 332 332 328
155 128 115 161 140 128 120 114 105 95 97 105 109 107 106 108 112 111 111 114 117 118 117 117 115 113 115 111 105 101 97 91 87 67 21 324 307 306 306 311 319 322 327 328
141 342 142 129 117 120 127 124 113 107 106 99 98 107 112 115 115 114 116 117 115 114 118 120 116 117 119 108 100 97 92 84 90 54 313 302 306 305 304 306 308 307 310 319
105 91 111 124 132 137 135 131 126 124 120 116 112 109 109 111 112 113 115 122 124 130 133 127 123 125 113 104 102 94 69 36 45 352 305 305 302 304 312 312 307 307 312 317
132 134 138 146 150 148 143 138 135 132 127 123 122 121 116 112 109 106 104 105 110 118 125 124 121 116 110 108 108 101 73 3 347 329 304 305 307 312 312 305 302 305 308 312
154 151 158 158 152 144 130 121 121 124 125 127 126 122 120 119 120 118 113 108 100 93 92 106 114 113 110 114 111 103 65 326 313 315 320 317 313 316 309 304 305 303 304 310
140 138 137 139 141 135 130 125 121 122 126 129 124 117 111 113 116 119 118 112 114 113 110 116 117 111 104 115 113 89 33 343 336 335 328 325 325 312 303 305 303 301 304 311
115 120 123 120 122 127 125 124 123 123 125 123 118 115 113 115 118 116 108 100 100 126 132 120 111 108 100 94 96 75 37 1 345 338 327 322 316 311 310 311 312 311 311 313
122 124 123 118 111 112 120 127 127 126 123 121 121 123 121 116 112 113 113 103 102 121 119 113 117 125 127 103 76 60 32 3 347 332 321 316 313 310 304 305 309 311 312 313
124 126 124 122 119 113 113 117 120 121 117 113 113 118 117 114 107 92 84 112 132 119 110 113 139 134 115 89 68 36 11 355 335 319 309 305 303 303 307 311 310 308 308 308
124 124 124 125 123 118 109 107 113 118 118 121 123 123 120 116 114 116 117 118 121 114 114 118 111 99 81 59 32 7 352 337 322 310 302 296 299 306 307 306 306 305 306 305
123 122 120 121 120 119 113 108 103 105 105 106 109 116 120 114 84 74 117 128 123 110 100 89 82 75 65 38 5 345 331 318 303 292 293 306 307 299 297 298 300 301 299 299
125 127 129 130 125 123 120 117 109 104 103 101 96 90 88 92 111 115 103 104 107 98 75 57 48 42 31 2 338 323 312 296 290 291 291 289 286 288 291 292 294 297 299 297
133 130 126 123 126 129 129 124 120 121 119 111 97 90 90 92 102 105 98 94 92 91 77 38 17 14 358 333 319 311 297 293 298 296 292 286 288 290 292 293 292 293 292 289
115 120 116 111 111 118 123 127 127 128 128 125 118 109 105 103 103 101 97 95 91 78 50 21 2 346 331 320 310 294 283 284 297 303 294 285 282 281 285 287 288 289 289 289
Height
1409 1407 1412 1409 1408 1409 1411 1409 1411 1399 1398 1389 1390 1387 1382 1378 1377 1378 1377 1381 1387 1393 1401 1411 1418 1426 1433 1438 1443 1448 1454 1460 1463 1468 1471 1472 1473 1474 1474 1473 1472 1472 1471 1470
1403 1400 1402 1400 1399 1400 1401 1401 1399 1400 1396 1388 1391 1386 1380 1375 1375 1375 1376 1381 1387 1395 1403 1411 1419 1426 1433 1438 1442 1448 1454 1458 1463 1466 1468 1469 1470 1471 1470 1470 1470 1469 1468 1466
1400 1391 1390 1397 1387 1387 1390 1392 1393 1396 1384 1386 1388 1386 1379 1372 1373 1374 1378 1383 1389 1397 1404 1411 1420 1427 1432 1437 1443 1448 1454 1458 1462 1464 1466 1467 1468 1468 1468 1468 1467 1466 1463 1461
1400 1395 1382 1373 1370 1372 1377 1378 1381 1381 1375 1376 1379 1380 1379 1378 1376 1378 1381 1386 1392 1397 1405 1414 1422 1428 1433 1438 1443 1448 1453 1457 1460 1462 1464 1465 1465 1466 1466 1465 1464 1462 1460 1457
1402 1384 1373 1370 1368 1371 1376 1375 1370 1372 1372 1376 1379 1380 1376 1375 1375 1379 1383 1387 1392 1399 1407 1415 1421 1428 1433 1438 1443 1448 1452 1456 1459 1460 1462 1463 1463 1464 1463 1462 1460 1458 1456 1452
1396 1388 1381 1373 1368 1369 1373 1374 1359 1364 1370 1376 1380 1382 1376 1375 1376 1379 1382 1388 1395 1403 1410 1416 1422 1429 1434 1438 1443 1448 1452 1455 1457 1458 1460 1461 1462 1462 1460 1458 1456 1454 1451 1448
1395 1389 1380 1373 1370 1373 1376 1365 1355 1357 1363 1372 1377 1380 1379 1377 1380 1381 1385 1391 1399 1406 1412 1418 1424 1430 1435 1440 1444 1448 1451 1453 1455 1458 1459 1460 1460 1459 1457 1455 1452 1450 1447 1444
1394 1389 1388 1374 1376 1376 1369 1361 1357 1358 1361 1366 1373 1380 1381 1383 1385 1384 1389 1396 1403 1408 1415 1421 1427 1432 1436 1441 1445 1447 1450 1452 1455 1457 1458 1458 1457 1456 1453 1451 1448 1445 1442 1438
1385 1382 1374 1371 1370 1367 1364 1361 1359 1359 1362 1368 1375 1381 1384 1388 1390 1392 1396 1401 1408 1413 1418 1424 1430 1435 1437 1441 1444 1447 1450 1453 1455 1456 1456 1456 1455 1453 1450 1447 1444 1440 1436 1432
1377 1373 1371 1369 1368 1366 1364 1361 1360 1361 1366 1371 1377 1385 1389 1392 1394 1397 1402 1407 1412 1417 1421 1426 1432 1436 1439 1442 1445 1448 1450 1452 1453 1453 1453 1453 1451 1449 1446 1443 1440 1436 1431 1427
1375 1370 1368 1367 1368 1367 1366 1365 1365 1368 1372 1378 1383 1390 1394 1396 1400 1404 1408 1413 1417 1421 1424 1429 1433 1437 1440 1443 1446 1448 1449 1450 1451 1451 1451 1450 1448 1446 1444 1440 1436 1432 1428 1424
1371 1367 1367 1366 1366 1369 1369 1370 1371 1373 1380 1387 1391 1393 1398 1402 1406 1410 1414 1418 1421 1425 1428 1431 1435 1438 1441 1444 1446 1447 1448 1449 1449 1449 1448 1447 1446 1444 1441 1439 1434 1430 1426 1422
1365 1365 1365 1366 1368 1371 1372 1374 1377 1380 1384 1389 1395 1398 1402 1406 1411 1415 1418 1422 1425 1428 1431 1434 1436 1439 1442 1444 1445 1446 1447 1448 1448 1448 1447 1445 1443 1440 1437 1434 1432 1428 1423 1418
1364 1364 1365 1367 1369 1372 1375 1377 1381 1385 1390 1394 1398 1403 1405 1409 1414 1418 1421 1424 1427 1430 1432 1435 1438 1440 1442 1444 1445 1446 1447 1447 1447 1446 1445 1443 1440 1437 1433 1429 1426 1422 1419 1414
1362 1363 1363 1365 1368 1373 1377 1380 1384 1389 1394 1398 1403 1406 1409 1412 1416 1419 1423 1426 1429 1431 1434 1436 1439 1441 1443 1444 1445 1446 1446 1446 1446 1444 1442 1440 1437 1434 1431 1427 1422 1418 1414 1410
1360 1362 1363 1365 1369 1373 1377 1381 1385 1391 1397 1401 1405 1408 1412 1414 1417 1421 1425 1428 1431 1433 1436 1438 1440 1442 1443 1444 1445 1446 1446 1445 1444 1443 1441 1438 1435 1431 1427 1423 1419 1415 1411 1406
1356 1360 1363 1366 1369 1374 1378 1383 1387 1392 1397 1402 1406 1410 1413 1416 1419 1423 1426 1430 1433 1435 1438 1440 1441 1442 1443 1444 1445 1445 1445 1444 1442 1440 1438 1435 1431 1428 1424 1420 1416 1413 1409 1405
1355 1356 1359 1362 1366 1373 1379 1385 1390 1395 1400 1404 1408 1412 1415 1419 1421 1425 1428 1431 1433 1436 1438 1440 1441 1442 1443 1444 1444 1444 1443 1442 1440 1438 1435 1432 1428 1424 1421 1417 1414 1410 1405 1401
1355 1357 1359 1363 1369 1374 1380 1385 1391 1397 1402 1406 1410 1414 1418 1421 1424 1427 1430 1432 1435 1437 1439 1441 1442 1443 1443 1443 1443 1442 1441 1439 1437 1435 1431 1428 1424 1421 1418 1414 1410 1406 1401 1397
1354 1357 1360 1364 1371 1377 1382 1388 1393 1399 1404 1408 1411 1415 1418 1422 1426 1429 1432 1434 1436 1438 1439 1440 1441 1442 1442 1442 1441 1440 1438 1437 1434 1431 1427 1424 1421 1418 1414 1410 1406 1402 1397 1393
1354 1357 1361 1366 1373 1379 1385 1390 1395 1400 1405 1410 1413 1416 1420 1424 1427 1430 1433 1435 1437 1438 1439 1440 1441 1441 1441 1440 1439 1437 1435 1433 1430 1427 1424 1421 1417 1414 1410 1406 1402 1398 1393 1389
1355 1358 1362 1368 1374 1380 1387 1393 1398 1402 1406 1411 1415 1418 1422 1425 1428 1431 1433 1435 1436 1437 1438 1439 1439 1439 1439 1437 1436 1434 1432 1429 1426 1423 1420 1417 1413 1410 1406 1402 1398 1394 1389 1385
1356 1360 1365 1370 1375 1381 1388 1395 1400 1404 1408 1412 1416 1420 1423 1426 1429 1431 1433 1434 1436 1437 1437 1438 1438 1437 1436 1434 1433 1431 1428 1425 1423 1420 1416 1413 1409 1406 1402 1398 1394 1390 1386 1382
1356 1361 1366 1372 1379 1384 1390 1396 1401 1406 1410 1414 1418 1421 1424 1427 1429 1431 1433 1434 1435 1436 1437 1437 1436 1435 1434 1432 1430 1427 1424 1421 1419 1416 1412 1409 1406 1402 1399 1395 1391 1387 1383 1379
1357 1362 1368 1374 1379 1385 1391 1396 1402 1406 1410 1414 1418 1422 1425 1428 1430 1431 1432 1434 1435 1435 1435 1435 1434 1433 1431 1429 1426 1423 1420 1417 1414 1411 1408 1405 1402 1398 1395 1391 1388 1384 1380 1377
1359 1364 1370 1375 1381 1386 1391 1397 1402 1406 1411 1415 1419 1423 1425 1428 1429 1431 1432 1433 1433 1434 1434 1433 1432 1430 1428 1425 1422 1419 1416 1413 1409 1406 1403 1400 1397 1394 1391 1388 1385 1382 1378 1375
1361 1365 1370 1376 1383 1388 1393 1398 1403 1407 1412 1416 1419 1423 1426 1428 1429 1431 1431 1432 1433 1433 1432 1431 1429 1427 1424 1421 1418 1415 1411 1408 1405 1402 1399 1396 1393 1390 1388 1385 1382 1379 1376 1373